When you browse on this site, cookies collect data to enhance your experience and personalize the content and advertising you see.
Visit our Privacy Policy to learn more. By continuing to use the site, you agree to this use of cookies and data.
  • In Lithuania
  • List of Countries
  • For 7 days
  • Water Temperature
  • Satellite Maps
  • Weather Map
  • Weather Widgets
  • user-avatar
    Login

    Hourly Weather Mochudi

    Today, 21 February, Thursday

    Time Temperature Precipitation Wind Pressure Humidity
    00:00 +25°C° 0 mm 0 mps 681 mmHg 37%
    01:00 +26°C° 0 mm 1 mps 681 mmHg 38%
    02:00 +25°C° 0 mm 1 mps 681 mmHg 38%
    03:00 +25°C° 0 mm 1 mps 681 mmHg 38%
    04:00 +24°C° 0 mm 1 mps 681 mmHg 39%
    05:00 +24°C° 0 mm 1 mps 681 mmHg 40%
    06:00 +25°C° 0 mm 1 mps 681 mmHg 38%
    07:00 +26°C° 0 mm 1 mps 682 mmHg 36%
    08:00 +29°C° 0 mm 2 mps 683 mmHg 33%
    09:00 +31°C° 0 mm 2 mps 683 mmHg 29%
    10:00 +35°C° 0 mm 2 mps 684 mmHg 26%
    11:00 +37°C° 0 mm 2 mps 684 mmHg 22%
    12:00 +38°C° 0 mm 2 mps 683 mmHg 20%
    13:00 +39°C° 0 mm 2 mps 683 mmHg 18%
    14:00 +40°C° 0 mm 1 mps 683 mmHg 15%
    15:00 +40°C° 0 mm 2 mps 682 mmHg 16%
    16:00 +39°C° 0 mm 2 mps 682 mmHg 17%
    17:00 +38°C° 0 mm 2 mps 681 mmHg 18%
    18:00 +35°C° 0 mm 1 mps 681 mmHg 20%
    19:00 +33°C° 0 mm 1 mps 681 mmHg 23%
    20:00 +29°C° 0 mm 0 mps 680 mmHg 25%
    21:00 +30°C° 0 mm 1 mps 681 mmHg 26%
    22:00 +30°C° 0 mm 1 mps 681 mmHg 27%
    23:00 +29°C° 0 mm 1 mps 681 mmHg 28%

    Tomorrow, 22 February, Friday

    Time Temperature Precipitation Wind Pressure Humidity
    00:00 +28°C° 0 mm 2 mps 681 mmHg 31%
    01:00 +28°C° 0 mm 3 mps 681 mmHg 35%
    02:00 +27°C° 0 mm 4 mps 681 mmHg 39%
    03:00 +27°C° 0 mm 4 mps 682 mmHg 44%
    04:00 +26°C° 0 mm 4 mps 682 mmHg 49%
    05:00 +25°C° 0 mm 4 mps 682 mmHg 54%
    06:00 +26°C° 0 mm 4 mps 682 mmHg 52%
    07:00 +26°C° 0 mm 4 mps 683 mmHg 51%
    08:00 +27°C° 0 mm 5 mps 684 mmHg 49%
    09:00 +29°C° 0 mm 5 mps 684 mmHg 44%
    10:00 +32°C° 0 mm 5 mps 684 mmHg 39%
    11:00 +34°C° 0 mm 4 mps 684 mmHg 34%
    12:00 +35°C° 0 mm 4 mps 684 mmHg 31%
    13:00 +36°C° 0 mm 4 mps 683 mmHg 27%
    14:00 +38°C° 0 mm 3 mps 683 mmHg 24%
    15:00 +38°C° 0 mm 3 mps 682 mmHg 23%
    16:00 +38°C° 0 mm 2 mps 681 mmHg 21%
    17:00 +37°C° 0 mm 1 mps 681 mmHg 20%
    18:00 +35°C° 0 mm 1 mps 681 mmHg 23%
    19:00 +34°C° 0 mm 2 mps 680 mmHg 26%
    20:00 +31°C° 0 mm 2 mps 680 mmHg 29%
    21:00 +30°C° 0 mm 2 mps 680 mmHg 35%
    22:00 +29°C° 0 mm 3 mps 680 mmHg 41%
    23:00 +28°C° 0 mm 4 mps 681 mmHg 46%

    Day after tomorrow, 23 February, Saturday

    Time Temperature Precipitation Wind Pressure Humidity
    00:00 +27°C° 0 mm 3 mps 680 mmHg 50%
    01:00 +26°C° 0 mm 3 mps 680 mmHg 53%
    02:00 +26°C° 0 mm 2 mps 680 mmHg 56%
    03:00 +25°C° 0 mm 2 mps 679 mmHg 58%
    04:00 +24°C° 0 mm 2 mps 679 mmHg 60%
    05:00 +24°C° 0 mm 2 mps 679 mmHg 62%
    06:00 +24°C° 0 mm 3 mps 680 mmHg 61%
    07:00 +25°C° 0 mm 3 mps 681 mmHg 60%
    08:00 +26°C° 0 mm 4 mps 681 mmHg 58%
    09:00 +28°C° 0 mm 3 mps 681 mmHg 52%
    10:00 +29°C° 0 mm 3 mps 682 mmHg 46%
    11:00 +31°C° 0 mm 3 mps 682 mmHg 40%
    12:00 +34°C° 0 mm 3 mps 681 mmHg 34%
    13:00 +37°C° 0 mm 4 mps 681 mmHg 28%
    14:00 +40°C° 0 mm 4 mps 680 mmHg 22%
    15:00 +40°C° 0 mm 4 mps 679 mmHg 21%
    16:00 +39°C° 0 mm 3 mps 679 mmHg 20%
    17:00 +39°C° 0 mm 3 mps 678 mmHg 19%
    18:00 +37°C° 0 mm 3 mps 678 mmHg 22%
    19:00 +35°C° 0 mm 2 mps 678 mmHg 25%
    20:00 +32°C° 0 mm 2 mps 677 mmHg 27%
    21:00 +31°C° 0 mm 2 mps 677 mmHg 29%
    22:00 +31°C° 0 mm 3 mps 677 mmHg 31%
    23:00 +30°C° 0 mm 3 mps 678 mmHg 33%

    24 February, Sunday

    Time Temperature Precipitation Wind Pressure Humidity
    00:00 +30°C° 0 mm 3 mps 678 mmHg 33%
    01:00 +30°C° 0 mm 4 mps 678 mmHg 32%
    02:00 +32°C° 0 mm 4 mps 678 mmHg 32%
    03:00 +29°C° 0 mm 4 mps 677 mmHg 33%
    04:00 +28°C° 0 mm 4 mps 677 mmHg 33%
    05:00 +27°C° 0 mm 4 mps 677 mmHg 33%
    06:00 +28°C° 0 mm 4 mps 678 mmHg 29%
    07:00 +29°C° 0 mm 4 mps 678 mmHg 24%
    08:00 +30°C° 0 mm 4 mps 679 mmHg 20%
    09:00 +34°C° 0 mm 4 mps 679 mmHg 15%
    10:00 +36°C° 0 mm 4 mps 680 mmHg 11%
    11:00 +40°C° 0 mm 4 mps 680 mmHg 7%
    12:00 +41°C° 0 mm 4 mps 679 mmHg 7%
    13:00 +42°C° 0 mm 4 mps 679 mmHg 7%
    14:00 +43°C° 0 mm 4 mps 678 mmHg 7%
    15:00 +42°C° 0 mm 4 mps 678 mmHg 8%
    16:00 +42°C° 0 mm 5 mps 677 mmHg 8%
    17:00 +41°C° 0 mm 5 mps 677 mmHg 9%
    18:00 +38°C° 0 mm 4 mps 677 mmHg 11%
    19:00 +35°C° 0 mm 3 mps 677 mmHg 13%
    20:00 +32°C° 0 mm 2 mps 677 mmHg 15%
    21:00 +31°C° 0 mm 2 mps 677 mmHg 15%
    22:00 +30°C° 0 mm 2 mps 677 mmHg 16%
    23:00 +30°C° 0 mm 2 mps 678 mmHg 16%

    25 February, Monday

    Time Temperature Precipitation Wind Pressure Humidity
    00:00 +29°C° 0 mm 3 mps 677 mmHg 17%
    01:00 +28°C° 0 mm 3 mps 677 mmHg 17%
    02:00 +27°C° 0 mm 3 mps 677 mmHg 18%
    03:00 +26°C° 0 mm 3 mps 677 mmHg 17%
    04:00 +25°C° 0 mm 3 mps 677 mmHg 15%
    05:00 +24°C° 0 mm 2 mps 677 mmHg 14%
    06:00 +26°C° 0 mm 2 mps 678 mmHg 15%
    07:00 +27°C° 0 mm 1 mps 678 mmHg 15%
    08:00 +28°C° 0 mm 1 mps 679 mmHg 16%
    09:00 +31°C° 0 mm 1 mps 680 mmHg 15%
    10:00 +35°C° 0 mm 2 mps 680 mmHg 15%
    11:00 +38°C° 0 mm 2 mps 681 mmHg 14%
    12:00 +39°C° 0 mm 2 mps 680 mmHg 12%
    13:00 +40°C° 0 mm 3 mps 680 mmHg 10%
    14:00 +42°C° 0 mm 3 mps 679 mmHg 9%
    15:00 +40°C° 0 mm 3 mps 679 mmHg 9%
    16:00 +40°C° 0 mm 3 mps 678 mmHg 9%
    17:00 +41°C° 0 mm 4 mps 678 mmHg 9%
    18:00 +38°C° 0 mm 3 mps 678 mmHg 11%
    19:00 +35°C° 0 mm 2 mps 677 mmHg 13%
    20:00 +32°C° 0 mm 2 mps 677 mmHg 15%
    21:00 +31°C° 0 mm 1 mps 678 mmHg 16%
    22:00 +30°C° 0 mm 1 mps 678 mmHg 17%
    23:00 +29°C° 0 mm 1 mps 678 mmHg 19%

    26 February, Tuesday

    Time Temperature Precipitation Wind Pressure Humidity
    00:00 +28°C° 0 mm 3 mps 679 mmHg 34%
    01:00 +27°C° 0 mm 4 mps 679 mmHg 49%
    02:00 +26°C° 0 mm 6 mps 679 mmHg 65%
    03:00 +25°C° 0 mm 5 mps 679 mmHg 69%
    04:00 +25°C° 0 mm 4 mps 679 mmHg 74%
    05:00 +23°C° 0 mm 4 mps 679 mmHg 78%
    06:00 +25°C° 0 mm 4 mps 680 mmHg 76%
    07:00 +26°C° 0 mm 5 mps 680 mmHg 73%
    08:00 +26°C° 0 mm 5 mps 681 mmHg 71%
    09:00 +29°C° 0 mm 5 mps 681 mmHg 62%
    10:00 +32°C° 0 mm 5 mps 681 mmHg 53%
    11:00 +34°C° 0 mm 5 mps 681 mmHg 44%
    12:00 +36°C° 0 mm 4 mps 680 mmHg 35%
    13:00 +38°C° 0 mm 3 mps 680 mmHg 27%
    14:00 +40°C° 0 mm 2 mps 679 mmHg 18%
    15:00 +39°C° 0 mm 2 mps 679 mmHg 18%
    16:00 +39°C° 0 mm 2 mps 678 mmHg 17%
    17:00 +39°C° 0 mm 2 mps 678 mmHg 17%
    18:00 +37°C° 0 mm 2 mps 678 mmHg 19%
    19:00 +34°C° 0 mm 1 mps 677 mmHg 21%
    20:00 +33°C° 0 mm 1 mps 677 mmHg 22%
    21:00 +31°C° 0 mm 1 mps 677 mmHg 25%
    22:00 +30°C° 0 mm 2 mps 677 mmHg 28%
    23:00 +28°C° 0 mm 2 mps 677 mmHg 31%
    Show more